Location: Truman State University Observatory
(40.1787°N, 92.6006°W)
Time: 16:45:36
(UTC-05:00)

OTV 5 (USA 277) - Visible Passes

Search period start: 19 June 2018 00:00
Search period end: 29 June 2018 00:00
Orbit: 313 x 320 km, 54.5° (Epoch: 18 June)

Date Brightness Start Highest point End Pass type
(mag) Time Alt. Az. Time Alt. Az. Time Alt. Az.
19 Jun ? 02:43:25 10° N 02:44:56 14° NNE 02:46:27 10° ENE visible
19 Jun ? 04:16:49 10° NW 04:19:29 56° SW 04:22:08 10° SE visible
19 Jun ? 22:12:21 10° NW 22:13:24 12° NNW 22:14:29 10° N visible
20 Jun ? 02:57:13 10° NNW 02:59:37 27° NE 03:01:31 13° E visible
21 Jun ? 01:38:56 10° NNE 01:39:24 10° NNE 01:39:52 10° NE visible
22 Jun ? 01:52:07 10° NNW 01:52:47 14° N 01:52:47 14° N visible
24 Jun ? 00:47:10 10° N 00:47:55 12° N 00:47:55 12° N visible
25 Jun ? 01:00:57 10° NNW 01:01:10 11° NNW 01:01:10 11° NNW visible
25 Jun ? 23:42:49 10° NNE 23:43:07 10° NNE 23:43:25 10° NNE visible
26 Jun ? 23:55:52 10° NNW 23:57:07 17° N 23:57:07 17° N visible
28 Jun ? 00:09:53 10° NW 00:10:37 16° NNW 00:10:37 16° NNW visible
28 Jun ? 22:50:56 10° N 22:52:22 13° NNE 22:53:18 12° NE visible
